Location: Durevi
(42.2785°N, 43.5032°E)
Time: 09:01:47
(UTC+00:00)

Daily predictions for brighter satellites

Satellite Brightness Start Highest point End
(mag) Time Altitude Azimuth Time Altitude Azimuth Time Altitude Azimuth
NOSS 3-1 (A) 4.3 14:25:25 10° NW 14:33:08 87° SW 14:41:58 10° SSE
Cosmos 2266 Rocket 4.0 14:27:35 10° N 14:33:47 68° E 14:40:04 10° SSE
CZ-4B R/B 1.3 14:32:12 10° NNE 14:35:25 58° ESE 14:38:31 10° S
Meteor 1-16 Rocket 4.3 14:31:27 10° S 14:37:10 87° W 14:42:44 10° N
Cosmos 1331 Rocket 4.4 14:32:36 10° S 14:37:22 40° ESE 14:42:09 10° NE
ATLAS 5 CENTAUR R/B 3.9 14:36:00 10° W 14:38:58 18° NW 14:42:13 10° N
OAO 3 Rocket 4.4 14:37:40 10° WSW 14:42:00 34° S 14:46:16 10° ESE
BREEZE-M R/B 4.1 14:40:00 10° WNW 14:43:10 36° N 14:48:52 10° ENE
Cosmos 1606 Rocket 3.9 14:39:49 10° SSE 14:43:53 41° E 14:48:01 10° NNE
CZ-2C R/B 4.3 14:40:51 10° ESE 14:45:26 25° ENE 14:49:56 10° NNE
GRACE-FO 1 4.5 14:41:52 10° N 14:45:29 79° E 14:49:05 10° S
GRACE-FO 2 4.5 14:42:15 10° N 14:45:52 80° E 14:49:28 10° S
Cosmos 1809 Rocket 4.4 14:39:44 10° N 14:45:53 70° E 14:51:57 10° SSE
Cosmos 2228 3.2 14:44:41 10° SSE 14:48:45 49° E 14:52:53 10° NNE
SKYMED 2 4.0 14:45:19 10° NNE 14:49:26 40° E 14:53:31 10° S
Cosmos 2227 Rocket 3.6 14:45:36 10° N 14:49:30 19° NE 14:53:22 10° E
Cosmos 292 Rocket 4.3 14:45:35 10° SSE 14:49:57 37° ESE 14:54:23 10° NE
Gbstr 26 Del rocket 4.4 14:43:40 10° WNW 14:50:06 77° SW 14:57:46 10° SE
SAR-Lupe-1 4.2 14:47:48 10° NNE 14:51:19 51° E 14:54:50 10° S
Cosmos 1953 4.2 14:48:05 10° SW 14:51:42 34° WNW 14:55:20 10° N
FALCON 9 DEB 4.2 14:50:01 10° SSW 14:52:47 26° SE 14:55:04 13° E
SL-4 R/B 3.5 14:50:27 10° WNW 14:53:20 23° NNW 14:56:21 10° NE
Cosmos 1908 3.9 14:50:50 10° SSW 14:54:36 58° W 14:58:25 10° N
SeaSat 1 4.0 14:55:17 11° E 14:58:08 18° NE 15:01:21 10° N
FALCON 9 DEB 3.8 14:57:35 10° SSW 15:00:30 33° SE 15:02:32 16° ENE
SMAP 4.2 14:57:12 10° S 15:01:41 48° W 15:06:13 10° NNW
Cosmos 1110 Rocket 4.0 14:57:34 10° SSW 15:02:49 77° ESE 15:08:03 10° NNE
CZ-2D R/B 3.5 15:04:36 10° SE 15:08:14 44° ENE 15:11:53 10° N
FALCON 9 DEB 3.6 15:05:20 10° SSW 15:08:21 37° SE 15:10:06 20° E
Cosmos 1703 4.5 15:04:41 10° NNW 15:08:29 46° W 15:12:15 10° SSW
Cosmos 1892 4.1 15:05:47 10° NNE 15:08:31 18° ENE 15:09:10 17° E
Cosmos 1697 Rocket 4.2 15:06:04 10° SE 15:09:02 15° E 15:09:12 15° E
Meteor 1-11 4.3 15:04:10 10° N 15:09:55 88° E 15:15:41 10° S
Cosmos 2058 Rocket 3.5 15:06:03 10° SSE 15:10:12 39° E 15:14:23 10° NNE
Timation 2 Rocket 4.3 15:07:07 10° NNW 15:13:34 54° ENE 15:20:12 10° SE
Cosmos 1953 Rocket 3.5 15:09:32 10° N 15:13:54 61° E 15:18:17 10° SSE
NOAA 11 4.4 15:09:17 10° S 15:14:44 74° WSW 15:20:11 10° NNW
Feng Yun 1-1 Rocket 4.5 15:11:26 10° SSE 15:17:19 83° WSW 15:23:17 10° NNW
COSMOS 2487 3.7 15:15:23 10° NNW 15:18:41 44° WSW 15:21:56 10° S
GEOS 3 Rocket 4.1 15:14:27 14° ESE 15:18:42 42° NE 15:23:44 10° NNW
Cosmos 1300 2.6 15:15:26 10° S 15:19:14 83° E 15:23:03 10° N
FALCON 9 DEB 3.0 15:20:01 10° SW 15:23:10 57° SE 15:24:26 31° ENE
Helios 1A Rocket 2.8 15:20:03 10° SSE 15:24:08 68° ENE 15:28:15 10° N
Aureole 3 Rocket 2.8 15:26:42 10° S 15:30:10 63° E 15:34:48 10° NNE
Cosmos 2297 Rocket 2.6 15:25:07 10° NNW 15:30:29 42° ENE 15:34:00 20° ESE
Cosmos 1939 Rocket 3.3 15:28:35 10° S 15:32:34 65° W 15:36:30 10° NNW
In-Cosmos 22 Rocket 4.1 15:29:27 10° N 15:34:42 55° ENE 15:40:01 10° SSE
PSLV R/B 4.1 15:30:50 10° N 15:35:01 74° WNW 15:39:09 10° SSW
H-2A R/B 2.4 15:32:21 10° SE 15:37:26 45° ENE 15:42:37 10° N
COSMO-SKYMED 1 3.2 15:33:14 10° N 15:37:31 59° WNW 15:41:46 10° SSW
CSL-04 Debris 4.3 15:33:07 10° SE 15:38:19 49° ENE 15:43:33 10° N
MOS 1 Rocket 3.5 15:37:13 10° NNE 15:41:41 47° E 15:46:25 10° S
Cosmos 1553 Rocket 3.9 15:37:23 10° S 15:43:42 69° E 15:49:59 10° NNE
Cosmos 1689 Rocket 4.0 15:42:47 10° N 15:45:22 30° WNW 15:47:57 10° SW
Cosmos 2058 3.9 15:42:52 10° N 15:45:29 29° NE 15:45:29 29° NE
Cosmos 1992 Rocket 4.5 15:44:06 10° SSE 15:48:40 35° ESE 15:48:40 35° ESE
CZ-4 R/B 1.4 15:46:11 10° S 15:50:06 76° WSW 15:54:00 10° NNW
YAOGAN 1 2.5 15:48:24 10° SSE 15:52:43 87° WSW 15:57:05 10° NNW
Cosmos 1340 2.5 15:49:35 10° N 15:53:23 87° E 15:56:06 18° S
Meteor 2-8 Rocket 4.5 15:49:17 10° S 15:55:23 82° W 16:01:33 10° N
SJ-11-01 4.2 15:52:26 19° SSE 15:55:41 64° ENE 16:00:20 10° N
Cosmos 2219 3.1 15:50:06 10° NNW 15:55:52 70° ENE 15:59:20 25° SE
Lacrosse 5 4.0 15:54:25 10° NW 15:57:26 16° N 15:59:46 12° NNE
BREEZE-M R/B 4.4 15:52:08 10° WNW 15:57:52 31° N 15:58:24 29° NNE
Geosat 4.2 15:57:41 10° NNE 16:02:42 71° WNW 16:07:41 10° SW
SL-08 ROCKET BODY 4.3 15:57:23 10° N 16:03:30 77° E 16:09:40 10° SSE
Atlas Centaur 2 4.1 15:56:44 10° SW 16:03:33 27° SSE 16:06:03 24° SE
Okean-O 3.5 16:01:22 10° S 16:05:40 49° W 16:09:59 10° NNW
Cosmos 1400 Rocket 3.8 16:01:45 10° SSW 16:05:45 49° WNW 16:09:46 10° N
Cosmos 44 4.1 16:01:32 10° SW 16:05:50 46° NW 16:09:11 17° NNE
Cosmos 2082 4.3 16:01:23 10° N 16:06:30 38° NE 16:06:30 38° NE
Cosmos 1745 Rocket 3.9 16:05:03 10° N 16:11:21 77° E 16:17:41 10° SSE
Cosmos 2369 4.4 16:09:43 10° S 16:13:27 36° SSE 16:13:27 36° SSE
Milstar 3 4.0 16:11:03 10° SW 16:16:32 27° S 16:18:20 24° SSE
Meteor 2-15 Rocket 4.3 16:10:29 10° S 16:16:35 77° E 16:22:45 10° N
Meteor 2-1 Rocket 4.0 16:12:16 10° S 16:17:46 79° E 16:23:17 10° NNE
CZ-2C R/B 4.0 16:19:14 10° S 16:24:54 53° W 16:30:31 10° NNW
NOSS 3-3 (A) 3.7 16:20:53 10° SSW 16:26:31 66° ESE 16:26:33 66° ESE
NOSS 3-3 (C) 3.7 16:20:58 10° SSW 16:26:38 65° ESE 16:26:41 65° ESE
ARGOS 3.1 16:27:37 48° S 16:29:12 87° WSW 16:34:40 10° NNW
USA 215 3.6 16:30:07 44° NE 16:30:49 45° NNE 16:36:59 10° NW
Meteor 2-10 Rocket 3.8 16:28:04 10° SSW 16:33:26 66° W 16:38:38 10° N
SL-4 R/B 4.2 16:31:00 10° NW 16:32:27 17° NNW 16:32:27 17° NNW
Cosmos 2227 Rocket 2.2 16:28:32 10° NNW 16:34:12 77° WSW 16:35:16 59° S
SeaSat 1 2.4 16:35:05 78° WSW 16:35:05 78° WSW 16:40:03 10° NNW
ATLAS 2AS CENTAUR R/B 3.9 16:34:26 10° NNW 16:40:27 28° NNE 16:40:27 28° NNE
Cosmos 1656 4.4 16:35:34 10° SW 16:40:56 51° WNW 16:44:51 19° N
Cosmos 1709 Rocket 3.9 16:35:11 10° N 16:41:09 72° NE 16:41:09 72° NE
CSL-04 Rocket 4.5 16:36:41 10° S 16:42:04 50° W 16:47:27 10° NNW
Cosmos 2263 Rocket 4.2 16:41:01 10° N 16:42:32 16° NNE 16:42:32 16° NNE
Cosmos 968 Rocket 3.9 16:41:40 10° NNW 16:46:48 60° WSW 16:46:53 60° WSW
Cosmos 1697 Rocket 3.1 16:46:39 10° SSW 16:51:02 55° SW 16:51:02 55° SW
Cosmos 2297 Rocket 3.9 17:09:31 10° NW 17:14:19 29° WSW 17:15:53 25° SW
H-2A R/B 4.2 17:12:41 10° SSW 17:17:01 25° W 17:21:26 10° NW
CZ-4C R/B 4.5 17:49:17 10° NNW 17:52:05 23° N 17:52:05 23° N
